Regional Weather Roundup
Issued by NWS

Home | Current Version | Previous Version | Text Only | Print | Product List | Glossary On
Versions: 1 2 3 4 5 6 7 8 9 10 11 12 13 14 15 16 17 18 19 20 21 22 23 24 25 26 27 28 29 30 31 32 33 34 35 36 37 38 39 40 41 42 43 44 45 46 47 48 49 50
000
ASUS43 KIND 241409
RWRIN

WEATHER ROUNDUP FOR INDIANA
NATIONAL WEATHER SERVICE INDIANAPOLIS IN
1000 AM EDT THU MAY 24 2018

NOTE: "FAIR" INDICATES FEW OR NO CLOUDS BELOW 12,000 FEET WITH NO
SIGNIFICANT WEATHER AND/OR OBSTRUCTIONS TO VISIBILITY.

* - STATION DOES NOT REPORT WEATHER SUCH AS PRECIPITATION OR FOG.

+ - STATION NOT QUALITY CONTROLLED BY THE NATIONAL WEATHER SERVICE.
    USE DATA WITH CAUTION...ESPECIALLY DEWPOINT AND RELATIVE
    HUMIDITY OBSERVATIONS.

INZ001>003-010>013-019-020-241500-
NORTHWEST INDIANA

CITY           SKY/WX    TMP DP  RH WIND       PRES   REMARKS
GARY /AIRPORT/ MOSUNNY   75  54  46 S5        30.23R
KNOX *+        FAIR      72  55  56 S6        30.24R
LA PORTE +     FAIR      71  58  62 S5        30.24S
MICHIGAN CITY+ FAIR      72  54  53 SW7       30.24S
MONTICELLO +   FAIR      71  54  55 S5        30.23S
RENSSELAER +   FAIR      73  45  35 SE7       30.23S

$$

LMZ046-743>745-241500-
SOUTHERN LAKE MICHIGAN

STATION/POSITION TIME  TEMP    WIND        PRES    WAVE
                       AIR SEA DIR/SP/G            HT
                 (UTC) (F)     (DEG/KT/KT) (MB)    (FT)
BURNS HARBOR     1340   72     190/  8/ 13 1023.7S
MICHIGAN CITY    1340   71     170/ 10/ 11   N/A
5NW MICH CITY    1400   65 58  210/  4/  4   N/A     0

$$

INZ004-005-014>016-021>024-241500-
NORTH CENTRAL INDIANA

CITY           SKY/WX    TMP DP  RH WIND       PRES   REMARKS
ELKHART        FAIR      73  54  49 SW6       30.25R
GOSHEN         FAIR      72  56  57 S5        30.25R
LOGANSPORT +   FAIR      72  54  53 S5        30.25F
PERU/GRISSOM   FAIR      72  57  57 SE6       30.23S
ROCHESTER +    FAIR      73  54  49 S7        30.25S
SOUTH BEND     FAIR      72  56  57 S7        30.24S
WARSAW +       FAIR      70  54  56 S3        30.25S

$$

INZ006>009-017-018-025>027-241500-
NORTHEAST INDIANA

CITY           SKY/WX    TMP DP  RH WIND       PRES   REMARKS
ANGOLA *+      FAIR      72  52  49 S7        30.25S
AUBURN +       FAIR      70  54  56 SW5       30.26S
FORT WAYNE     FAIR      72  53  51 S7        30.26R
HUNTINGTON +   FAIR      71  51  50 S5        30.25S
KENDALLVILLE + FAIR     N/A N/A N/A S6        30.26S

$$

INZ028-029-035-036-043>045-051>053-241500-
WEST CENTRAL INDIANA

CITY           SKY/WX    TMP DP  RH WIND       PRES   REMARKS
CRAWFORDSVL +  FAIR      71  56  60 SE8       30.23F
GREENCASTLE +  FAIR      72  54  53 CALM      30.24S
LAFAYETTE      FAIR      72  59  63 CALM      30.22S
TERRE HAUTE    FAIR      73  57  57 SE8       30.22S

$$

INZ030>032-037>040-046>048-054>057-064-065-241500-
CENTRAL INDIANA

CITY           SKY/WX    TMP DP  RH WIND       PRES   REMARKS
COLUMBUS       SUNNY     70  55  60 CALM      30.24R
FRANKFORT +    FAIR      76  59  55 S3        30.25S
GREENWOOD *+   FAIR      71  57  62 SE6       30.25R
INDIANAPOLIS   FAIR      72  57  59 SE8       30.23S
-EAGLE CREEK   FAIR      72  57  59 SE6       30.23S
KOKOMO +       FAIR      71  57  61 SE8       30.25S
MARION +       FAIR      71  56  59 CALM      30.25F
MT COMFORT *+  FAIR      72  61  68 SE8       30.25S
SHELBYVILLE    FAIR      74  56  53 E7        30.24R
ZIONSVILLE +   FAIR      70  57  62 SE6       30.25S

$$

INZ033-034-041-042-049-050-058-059-241500-
EAST CENTRAL INDIANA

CITY           SKY/WX    TMP DP  RH WIND       PRES   REMARKS
MUNCIE         FAIR      74  52  46 SE8       30.25R
RICHMOND +     FAIR      70  52  52 E6        30.26S

$$

INZ060-061-067>069-081>083-085>088-241500-
SOUTHWEST INDIANA

CITY           SKY/WX    TMP DP  RH WIND       PRES   REMARKS
EVANSVILLE     FAIR      74  63  68 E3        30.18F
HUNTINGBURG +  CLOUDY    74  61  63 E8        30.20S
WASHINGTON +   FAIR      74  57  55 E6        30.20S

$$

INZ062-063-066-070>080-084-089>092-241500-
SOUTH CENTRAL AND SOUTHEAST INDIANA

CITY           SKY/WX    TMP DP  RH WIND       PRES   REMARKS
BATESVILLE +   SUNNY     70  61  73 NE5       30.24S
BLOOMINGTON    FAIR      72  59  63 SE12      30.22S
FRENCH LICK *+ FAIR      70  50  49 NE6       30.21F
MADISON *+     FAIR      70  55  60 E6        30.24F
SEYMOUR +      FAIR      73  57  56 E6        30.23R

$$





USA.gov is the U.S. government's official web portal to all federal, state and local government web resources and services.